CALSPHERE 1 1 00900U 64063C 26150.06765140 .00000710 00000+0 71317-3 0 9990 2 00900 90.2239 71.3436 0026388 353.4652 69.1859 13.76601476 68930 CALSPHERE 2 1 00902U 64063E 26150.13419281 .00000064 00000+0 83464-4 0 9991 2 00902 90.2378 75.3605 0016592 281.5298 145.4939 13.52898869853826 LCS 1 1 01361U 65034C 26150.19772966 .00000033 00000+0 32077-2 0 9996 2 01361 32.1380 219.7441 0012499 57.4827 302.6877 9.89310534208102 TEMPSAT 1 1 01512U 65065E 26150.12338812 .00000052 00000+0 87354-4 0 9990 2 01512 90.0000 212.5914 0067835 300.1859 88.8455 13.33592999957641 CALSPHERE 4A 1 01520U 65065H 26149.87346640 .00000120 00000+0 21227-3 0 9999 2 01520 89.8971 122.6689 0070593 153.5531 239.7696 13.36274571960267 OPS 5712 (P/L 160) 1 02826U 67053A 26150.04127638 .00012295 00000+0 17319-2 0 9995 2 02826 69.9172 82.7633 0001171 259.2205 100.8811 14.77435022 63551 OPS 5712 (P/L 153) 1 02874U 67053H 26150.07778360 .00000051 00000+0 75336-4 0 9997 2 02874 69.9717 154.1226 0009404 232.5010 127.5242 13.96825565 4268 RIGIDSPHERE 2 (LCS 4) 1 05398U 71067E 26150.09775113 .00000719 00000+0 22853-3 0 9992 2 05398 87.6212 343.8361 0057759 293.8749 65.6404 14.37845632871280 COSMOS 2493 (SKRL-756 1) 1 39490U 13078A 26149.96597478 .00004723 00000+0 35762-3 0 9992 2 39490 82.4122 279.0107 0011843 309.6525 50.3654 15.02049524675226 COSMOS 2494 (SKRL-756 2) 1 39491U 13078B 26150.12959061 .00005339 00000+0 37628-3 0 9990 2 39491 82.4115 268.3141 0014618 266.0101 93.9454 15.04738783676098